This is the latest recevied weather packets stored in our database for station/object WD4ITN. If no packets are shown the sender has not sent any weather packets the latest 10 day(s).
| Time | Temp. | Humidity | Pressure | Rain* | Wind** | Luminosity | Snow |
|---|---|---|---|---|---|---|---|
| 1777733605 | 7.78° C | 52% | 1011.7 hPa | 0 mm | - | - | - |
| 1777733321 | 7.22° C | 55% | 1011.6 hPa | 0 mm | - | - | - |
| 1777733000 | 7.22° C | 54% | 1011.4 hPa | 0 mm | - | - | - |
| 1777732719 | 7.22° C | 54% | 1011.5 hPa | 0 mm | - | - | - |
| 1777732405 | 7.22° C | 53% | 1011.6 hPa | 0 mm | - | - | - |
| 1777732102 | 7.22° C | 56% | 1011.6 hPa | 0 mm | - | - | - |
| 1777731790 | 7.22° C | 54% | 1011.6 hPa | 0 mm | - | - | - |
| 1777731494 | 6.67° C | 56% | 1011.7 hPa | 0 mm | - | - | - |
| 1777731191 | 6.67° C | 54% | 1011.6 hPa | 0 mm | - | - | - |
| 1777730911 | 6.67° C | 56% | 1011.7 hPa | 0 mm | - | - | - |
| 1777730601 | 6.11° C | 53% | 1011.7 hPa | 0 mm | - | - | - |
| 1777730297 | 6.11° C | 56% | 1011.7 hPa | 0 mm | - | - | - |
| 1777730019 | 6.11° C | 55% | 1011.9 hPa | 0 mm | - | - | - |
| 1777729694 | 6.11° C | 56% | 1011.8 hPa | 0 mm | - | - | - |
| 1777729412 | 6.11° C | 56% | 1011.7 hPa | 0 mm | - | - | - |
| 1777729106 | 6.11° C | 56% | 1011.6 hPa | 0 mm | - | - | - |
| 1777728807 | 6.11° C | 58% | 1011.5 hPa | 0 mm | - | - | - |
| 1777728506 | 5.56° C | 60% | 1011.5 hPa | 0 mm | - | - | - |
| 1777728222 | 5.56° C | 61% | 1011.6 hPa | 0 mm | - | - | - |
| 1777727911 | 5.56° C | 63% | 1011.5 hPa | 0 mm | - | - | - |
| 1777727609 | 5.56° C | 63% | 1011.5 hPa | 0 mm | - | - | - |
| 1777727301 | 5° C | 65% | 1011.5 hPa | 0 mm | - | - | - |
| 1777726695 | 5° C | 66% | 1011.6 hPa | 0 mm | - | - | - |
| 1777726416 | 5° C | 69% | 1011.4 hPa | 0 mm | - | - | - |
| 1777726104 | 4.44° C | 69% | 1011.4 hPa | 0 mm | - | - | - |
* Rain since midnight (hover to see other rain measurements)
** Current wind speed in m/s (hover to see current wind gust speed)